When you browse on this site, cookies collect data to enhance your experience and personalize the content and advertising you see.
Visit our Privacy Policy to learn more. By continuing to use the site, you agree to this use of cookies and data.
  • En España
  • Lista de países
  • Para 7 días
  • Temperatura del agua
  • El tiempo en el mapa
  • Informadores
  • user-avatar
    Iniciar sesión

    Tiempo cada hora Dzhezkazgan

    Hoy, 22 Agosto, Jueves

    Tiempo Temperatura Precipitaciones Viento Presión Humedad
    00:00 +25°C° 0 mm 1 mps 740 mmHg 30%
    01:00 +24°C° 0 mm 1 mps 740 mmHg 32%
    02:00 +24°C° 0 mm 1 mps 740 mmHg 32%
    03:00 +24°C° 0 mm 2 mps 739 mmHg 31%
    04:00 +24°C° 0 mm 2 mps 739 mmHg 31%
    05:00 +26°C° 0 mm 2 mps 739 mmHg 28%
    06:00 +28°C° 0 mm 2 mps 739 mmHg 25%
    07:00 +30°C° 0 mm 3 mps 739 mmHg 22%
    08:00 +33°C° 0 mm 4 mps 740 mmHg 21%
    09:00 +35°C° 0 mm 5 mps 740 mmHg 21%
    10:00 +38°C° 0 mm 7 mps 740 mmHg 20%
    11:00 +38°C° 0 mm 7 mps 740 mmHg 20%
    12:00 +38°C° 0 mm 8 mps 740 mmHg 19%
    13:00 +39°C° 0 mm 8 mps 739 mmHg 19%
    14:00 +38°C° 0 mm 8 mps 739 mmHg 20%
    15:00 +38°C° 0 mm 8 mps 740 mmHg 21%
    16:00 +37°C° 0 mm 8 mps 740 mmHg 22%
    17:00 +34°C° 0 mm 7 mps 740 mmHg 24%
    18:00 +32°C° 0 mm 6 mps 740 mmHg 26%
    19:00 +29°C° 0 mm 5 mps 740 mmHg 28%
    20:00 +28°C° 0 mm 6 mps 740 mmHg 28%
    21:00 +27°C° 0 mm 6 mps 740 mmHg 27%
    22:00 +26°C° 0 mm 7 mps 741 mmHg 27%
    23:00 +24°C° 0 mm 7 mps 741 mmHg 29%

    Mañana, 23 Agosto, Viernes

    Tiempo Temperatura Precipitaciones Viento Presión Humedad
    00:00 +24°C° 0 mm 7 mps 740 mmHg 30%
    01:00 +23°C° 0 mm 7 mps 740 mmHg 31%
    02:00 +22°C° 0 mm 7 mps 741 mmHg 33%
    03:00 +22°C° 0 mm 8 mps 741 mmHg 35%
    04:00 +21°C° 0 mm 8 mps 741 mmHg 36%
    05:00 +22°C° 0 mm 8 mps 741 mmHg 35%
    06:00 +23°C° 0 mm 8 mps 742 mmHg 35%
    07:00 +24°C° 0 mm 9 mps 742 mmHg 34%
    08:00 +27°C° 0 mm 9 mps 742 mmHg 31%
    09:00 +28°C° 0 mm 9 mps 742 mmHg 28%
    10:00 +31°C° 0 mm 9 mps 743 mmHg 25%
    11:00 +31°C° 0 mm 9 mps 742 mmHg 24%
    12:00 +32°C° 0 mm 9 mps 742 mmHg 23%
    13:00 +33°C° 0 mm 9 mps 742 mmHg 22%
    14:00 +33°C° 0 mm 9 mps 742 mmHg 21%
    15:00 +33°C° 0 mm 8 mps 742 mmHg 21%
    16:00 +32°C° 0 mm 8 mps 742 mmHg 20%
    17:00 +30°C° 0 mm 7 mps 742 mmHg 21%
    18:00 +28°C° 0 mm 7 mps 742 mmHg 23%
    19:00 +27°C° 0 mm 6 mps 742 mmHg 25%
    20:00 +26°C° 0 mm 7 mps 743 mmHg 26%
    21:00 +26°C° 0 mm 7 mps 743 mmHg 28%
    22:00 +24°C° 0 mm 8 mps 743 mmHg 29%
    23:00 +24°C° 0 mm 8 mps 743 mmHg 31%

    Pasado mañana, 24 Agosto, Sábado

    Tiempo Temperatura Precipitaciones Viento Presión Humedad
    00:00 +23°C° 0 mm 7 mps 743 mmHg 32%
    01:00 +22°C° 0 mm 7 mps 743 mmHg 33%
    02:00 +22°C° 0 mm 7 mps 743 mmHg 34%
    03:00 +21°C° 0 mm 7 mps 744 mmHg 35%
    04:00 +20°C° 0 mm 7 mps 744 mmHg 36%
    05:00 +22°C° 0 mm 8 mps 744 mmHg 33%
    06:00 +24°C° 0 mm 9 mps 744 mmHg 29%
    07:00 +27°C° 0 mm 9 mps 745 mmHg 26%
    08:00 +28°C° 0 mm 10 mps 745 mmHg 24%
    09:00 +31°C° 0 mm 10 mps 745 mmHg 21%
    10:00 +33°C° 0 mm 10 mps 745 mmHg 19%
    11:00 +34°C° 0 mm 9 mps 745 mmHg 17%
    12:00 +35°C° 0 mm 9 mps 744 mmHg 15%
    13:00 +37°C° 0 mm 9 mps 744 mmHg 13%
    14:00 +35°C° 0 mm 9 mps 744 mmHg 13%
    15:00 +35°C° 0 mm 9 mps 743 mmHg 12%
    16:00 +35°C° 0 mm 9 mps 743 mmHg 12%
    17:00 +33°C° 0 mm 8 mps 743 mmHg 13%
    18:00 +31°C° 0 mm 8 mps 743 mmHg 15%
    19:00 +28°C° 0 mm 7 mps 743 mmHg 17%
    20:00 +27°C° 0 mm 6 mps 743 mmHg 19%
    21:00 +26°C° 0 mm 6 mps 743 mmHg 20%
    22:00 +24°C° 0 mm 6 mps 743 mmHg 22%
    23:00 +24°C° 0 mm 6 mps 743 mmHg 23%

    25 Agosto, Domingo

    Tiempo Temperatura Precipitaciones Viento Presión Humedad
    00:00 +23°C° 0 mm 6 mps 743 mmHg 24%
    01:00 +23°C° 0 mm 6 mps 742 mmHg 25%
    02:00 +22°C° 0 mm 6 mps 742 mmHg 27%
    03:00 +22°C° 0 mm 7 mps 742 mmHg 29%
    04:00 +21°C° 0 mm 7 mps 742 mmHg 31%
    05:00 +23°C° 0 mm 8 mps 742 mmHg 27%
    06:00 +26°C° 0 mm 8 mps 742 mmHg 24%
    07:00 +28°C° 0 mm 9 mps 743 mmHg 20%
    08:00 +29°C° 0 mm 10 mps 742 mmHg 18%
    09:00 +32°C° 0 mm 10 mps 742 mmHg 15%
    10:00 +34°C° 0 mm 10 mps 742 mmHg 12%
    11:00 +36°C° 0 mm 10 mps 742 mmHg 12%
    12:00 +37°C° 0 mm 9 mps 741 mmHg 11%
    13:00 +38°C° 0 mm 9 mps 741 mmHg 10%
    14:00 +38°C° 0 mm 9 mps 741 mmHg 10%
    15:00 +38°C° 0 mm 9 mps 740 mmHg 10%
    16:00 +38°C° 0 mm 9 mps 740 mmHg 10%
    17:00 +35°C° 0 mm 9 mps 740 mmHg 12%
    18:00 +33°C° 0 mm 9 mps 740 mmHg 14%
    19:00 +32°C° 0 mm 9 mps 740 mmHg 16%
    20:00 +31°C° 0 mm 9 mps 740 mmHg 17%
    21:00 +29°C° 0 mm 9 mps 740 mmHg 18%
    22:00 +29°C° 0 mm 10 mps 740 mmHg 20%
    23:00 +28°C° 0 mm 9 mps 740 mmHg 22%

    26 Agosto, Lunes

    Tiempo Temperatura Precipitaciones Viento Presión Humedad
    00:00 +27°C° 0 mm 8 mps 740 mmHg 25%
    01:00 +26°C° 0 mm 7 mps 739 mmHg 27%
    02:00 +24°C° 0 mm 7 mps 739 mmHg 27%
    03:00 +24°C° 0 mm 7 mps 739 mmHg 27%
    04:00 +24°C° 0 mm 6 mps 739 mmHg 27%
    05:00 +26°C° 0 mm 7 mps 739 mmHg 23%
    06:00 +28°C° 0 mm 8 mps 740 mmHg 20%
    07:00 +31°C° 0 mm 8 mps 740 mmHg 17%
    08:00 +33°C° 0 mm 7 mps 740 mmHg 15%
    09:00 +34°C° 0 mm 6 mps 739 mmHg 13%
    10:00 +36°C° 0 mm 5 mps 739 mmHg 11%
    11:00 +37°C° 0 mm 5 mps 739 mmHg 10%
    12:00 +38°C° 0 mm 4 mps 738 mmHg 9%
    13:00 +40°C° 0 mm 4 mps 738 mmHg 8%
    14:00 +40°C° 0 mm 4 mps 738 mmHg 8%
    15:00 +40°C° 0 mm 4 mps 737 mmHg 8%
    16:00 +40°C° 0 mm 4 mps 737 mmHg 7%
    17:00 +36°C° 0 mm 4 mps 737 mmHg 10%
    18:00 +33°C° 0 mm 4 mps 737 mmHg 12%
    19:00 +29°C° 0 mm 4 mps 737 mmHg 15%
    20:00 +29°C° 0 mm 4 mps 737 mmHg 15%
    21:00 +29°C° 0 mm 5 mps 737 mmHg 15%
    22:00 +28°C° 0 mm 5 mps 737 mmHg 15%
    23:00 +27°C° 0 mm 4 mps 736 mmHg 17%

    27 Agosto, Martes

    Tiempo Temperatura Precipitaciones Viento Presión Humedad
    00:00 +26°C° 0 mm 3 mps 736 mmHg 18%
    01:00 +24°C° 0 mm 2 mps 736 mmHg 20%
    02:00 +24°C° 0 mm 2 mps 736 mmHg 21%
    03:00 +23°C° 0 mm 2 mps 736 mmHg 22%
    04:00 +22°C° 0 mm 1 mps 736 mmHg 24%
    05:00 +25°C° 0 mm 1 mps 737 mmHg 21%
    06:00 +27°C° 0 mm 1 mps 737 mmHg 18%
    07:00 +30°C° 0 mm 2 mps 737 mmHg 15%
    08:00 +32°C° 0 mm 2 mps 738 mmHg 14%
    09:00 +35°C° 0 mm 3 mps 738 mmHg 13%
    10:00 +37°C° 0 mm 4 mps 738 mmHg 12%
    11:00 +37°C° 0 mm 5 mps 738 mmHg 12%
    12:00 +39°C° 0 mm 6 mps 738 mmHg 12%
    13:00 +40°C° 0 mm 7 mps 738 mmHg 12%
    14:00 +39°C° 0 mm 8 mps 738 mmHg 13%
    15:00 +38°C° 0 mm 9 mps 738 mmHg 14%
    16:00 +37°C° 0 mm 10 mps 738 mmHg 15%
    17:00 +34°C° 0 mm 9 mps 739 mmHg 19%
    18:00 +31°C° 0 mm 9 mps 739 mmHg 23%
    19:00 +28°C° 0 mm 8 mps 740 mmHg 28%
    20:00 +26°C° 0 mm 8 mps 741 mmHg 28%
    21:00 +24°C° 0 mm 7 mps 741 mmHg 28%
    22:00 +22°C° 0 mm 7 mps 742 mmHg 29%
    23:00 +21°C° 0 mm 7 mps 742 mmHg 32%
    Mostrar más